| time (UTC) | temp C | wind direction | speed KPH | gust KPH | rain 1hr cm | rain 24hr cm | rain mn cm | humidity % | barometer mb |
| 20260507123005 | 2 | 62 | 0.0 | 0.0 | 0.00 | 0.00 | 0.00 | 73 | 1019.9 |
| 20260507122005 | 1 | 62 | 0.0 | 0.0 | 0.00 | 0.00 | 0.00 | 72 | 1019.8 |
| 20260507121505 | 1 | 62 | 0.0 | 0.0 | 0.00 | 0.00 | 0.00 | 74 | 1019.9 |
| 20260507121005 | 1 | 62 | 0.0 | 0.0 | 0.00 | 0.00 | 0.00 | 72 | 1019.9 |
| 20260507120505 | 1 | 62 | 0.0 | 0.0 | 0.00 | 0.00 | 0.00 | 70 | 1019.9 |
| 20260507120006 | 1 | 62 | 0.0 | 0.0 | 0.00 | 0.00 | 0.00 | 70 | 1019.9 |
| 20260507115506 | 1 | 62 | 0.0 | 0.0 | 0.00 | 0.00 | 0.00 | 69 | 1019.9 |
| 20260507114505 | 2 | 62 | 0.0 | 0.0 | 0.00 | 0.00 | 0.00 | 69 | 1019.9 |
| 20260507114005 | 2 | 62 | 0.0 | 0.0 | 0.00 | 0.00 | 0.00 | 67 | 1019.9 |
| 20260507113505 | 2 | 62 | 0.0 | 0.0 | 0.00 | 0.00 | 0.00 | 71 | 1019.9 |
| 20260507113005 | 2 | 62 | 0.0 | 0.0 | 0.00 | 0.00 | 0.00 | 75 | 1019.9 |
| 20260507112505 | 2 | 62 | 0.0 | 0.0 | 0.00 | 0.00 | 0.00 | 68 | 1019.9 |
| 20260507112005 | 2 | 62 | 0.0 | 0.0 | 0.00 | 0.00 | 0.00 | 66 | 1020.1 |
| 20260507110505 | 2 | 62 | 0.0 | 0.0 | 0.00 | 0.00 | 0.00 | 70 | 1020.0 |
| 20260507110005 | 2 | 62 | 0.0 | 0.0 | 0.00 | 0.00 | 0.00 | 69 | 1019.9 |
| 20260507105505 | 2 | 62 | 0.0 | 0.0 | 0.00 | 0.00 | 0.00 | 67 | 1019.9 |
| 20260507105005 | 3 | 62 | 0.0 | 0.0 | 0.00 | 0.00 | 0.00 | 66 | 1019.9 |
| 20260507104506 | 3 | 62 | 0.0 | 0.0 | 0.00 | 0.00 | 0.00 | 67 | 1020.0 |
| 20260507104005 | 3 | 62 | 0.0 | 0.0 | 0.00 | 0.00 | 0.00 | 70 | 1019.9 |
| 20260507103005 | 3 | 62 | 0.0 | 0.0 | 0.00 | 0.00 | 0.00 | 71 | 1020.0 |
| 20260507102505 | 3 | 62 | 0.0 | 0.0 | 0.00 | 0.00 | 0.00 | 69 | 1020.1 |
| 20260507101504 | 3 | 62 | 0.0 | 0.0 | 0.00 | 0.00 | 0.00 | 65 | 1020.1 |
| 20260507101005 | 3 | 62 | 0.0 | 0.0 | 0.00 | 0.00 | 0.00 | 68 | 1020.3 |
| 20260507100505 | 3 | 62 | 0.0 | 0.0 | 0.00 | 0.00 | 0.00 | 64 | 1020.3 |
| 20260507100005 | 3 | 62 | 0.0 | 0.0 | 0.00 | 0.00 | 0.00 | 65 | 1020.3 |
| 20260507095505 | 3 | 62 | 0.0 | 0.0 | 0.00 | 0.00 | 0.00 | 64 | 1020.3 |
| 20260507094504 | 2 | 62 | 0.0 | 0.0 | 0.00 | 0.00 | 0.00 | 65 | 1020.3 |
| 20260507094005 | 2 | 62 | 0.0 | 0.0 | 0.00 | 0.00 | 0.00 | 65 | 1020.4 |
| 20260507093505 | 2 | 62 | 0.0 | 0.0 | 0.00 | 0.00 | 0.00 | 67 | 1020.5 |
| 20260507093005 | 2 | 62 | 0.0 | 0.0 | 0.00 | 0.00 | 0.00 | 64 | 1020.4 |
| 20260507092505 | 2 | 62 | 0.0 | 0.0 | 0.00 | 0.00 | 0.00 | 64 | 1020.5 |
| 20260507092005 | 2 | 62 | 0.0 | 0.0 | 0.00 | 0.00 | 0.00 | 64 | 1020.5 |
| 20260507091505 | 2 | 62 | 0.0 | 0.0 | 0.00 | 0.00 | 0.00 | 63 | 1020.6 |
| 20260507091005 | 2 | 62 | 0.0 | 0.0 | 0.00 | 0.00 | 0.00 | 62 | 1020.7 |
| 20260507090006 | 2 | 62 | 0.0 | 0.0 | 0.00 | 0.00 | 0.00 | 61 | 1020.8 |
| 20260507085504 | 3 | 62 | 0.0 | 0.0 | 0.00 | 0.00 | 0.00 | 61 | 1020.8 |
| 20260507085005 | 3 | 62 | 0.0 | 0.0 | 0.00 | 0.00 | 0.00 | 60 | 1020.8 |
| 20260507084505 | 3 | 62 | 0.0 | 0.0 | 0.00 | 0.00 | 0.00 | 60 | 1020.9 |
| 20260507084005 | 3 | 62 | 0.0 | 0.0 | 0.00 | 0.00 | 0.00 | 64 | 1020.8 |
| 20260507083504 | 3 | 62 | 0.0 | 0.0 | 0.00 | 0.00 | 0.00 | 64 | 1020.8 |
| 20260507083005 | 3 | 62 | 0.0 | 0.0 | 0.00 | 0.00 | 0.00 | 61 | 1020.9 |
| 20260507082504 | 4 | 62 | 0.0 | 0.0 | 0.00 | 0.00 | 0.00 | 58 | 1020.9 |
| 20260507082004 | 4 | 62 | 0.0 | 0.0 | 0.00 | 0.00 | 0.00 | 61 | 1020.9 |
| 20260507081504 | 4 | 62 | 0.0 | 0.0 | 0.00 | 0.00 | 0.00 | 60 | 1020.9 |
| 20260507081004 | 4 | 62 | 0.0 | 0.0 | 0.00 | 0.00 | 0.00 | 57 | 1020.9 |
| 20260507080505 | 5 | 62 | 0.0 | 0.0 | 0.00 | 0.00 | 0.00 | 57 | 1020.9 |
| 20260507080005 | 5 | 62 | 0.0 | 0.0 | 0.00 | 0.00 | 0.00 | 58 | 1020.9 |
| 20260507075505 | 5 | 62 | 0.0 | 0.0 | 0.00 | 0.00 | 0.00 | 57 | 1021.0 |
| 20260507074504 | 5 | 62 | 0.0 | 0.0 | 0.00 | 0.00 | 0.00 | 55 | 1020.9 |
| 20260507074005 | 5 | 62 | 0.0 | 0.0 | 0.00 | 0.00 | 0.00 | 57 | 1020.9 |
| 20260507073004 | 5 | 62 | 0.0 | 0.0 | 0.00 | 0.00 | 0.00 | 56 | 1020.9 |
| 20260507072004 | 5 | 62 | 0.0 | 0.0 | 0.00 | 0.00 | 0.00 | 55 | 1020.9 |
| 20260507071504 | 5 | 62 | 0.0 | 0.0 | 0.00 | 0.00 | 0.00 | 55 | 1020.9 |
| 20260507071005 | 5 | 62 | 0.0 | 0.0 | 0.00 | 0.00 | 0.00 | 54 | 1020.9 |
| 20260507070505 | 5 | 62 | 0.0 | 0.0 | 0.00 | 0.00 | 0.00 | 54 | 1020.8 |
| 20260507070009 | 5 | 62 | 0.0 | 0.0 | 0.00 | 0.00 | 0.00 | 53 | 1020.9 |
| 20260507065004 | 5 | 62 | 0.0 | 0.0 | 0.00 | 0.00 | 0.00 | 55 | 1020.9 |
| 20260507063505 | 5 | 62 | 0.0 | 0.0 | 0.00 | 0.00 | 0.00 | 52 | 1021.0 |
| 20260507062505 | 5 | 62 | 0.0 | 0.0 | 0.00 | 0.00 | 0.00 | 52 | 1020.9 |
| 20260507062005 | 5 | 62 | 0.0 | 0.0 | 0.00 | 0.00 | 0.00 | 50 | 1020.9 |
| 20260507061504 | 5 | 55 | 0.0 | 0.0 | 0.00 | 0.00 | 0.00 | 51 | 1020.9 |
| 20260507061004 | 5 | 55 | 0.0 | 0.0 | 0.00 | 0.00 | 0.00 | 50 | 1020.9 |
| 20260507060504 | 5 | 55 | 0.0 | 0.0 | 0.00 | 0.00 | 0.00 | 49 | 1020.9 |
| 20260507055004 | 6 | 55 | 0.0 | 0.0 | 0.00 | 0.00 | 0.00 | 47 | 1020.7 |
| 20260507054504 | 6 | 55 | 0.0 | 0.0 | 0.00 | 0.00 | 0.00 | 49 | 1020.8 |
| 20260507054004 | 6 | 55 | 0.0 | 0.0 | 0.00 | 0.00 | 0.00 | 50 | 1020.7 |
| 20260507053504 | 6 | 55 | 0.0 | 0.0 | 0.00 | 0.00 | 0.00 | 48 | 1020.7 |
| 20260507053005 | 6 | 49 | 0.0 | 0.0 | 0.00 | 0.00 | 0.00 | 48 | 1020.8 |
| 20260507052504 | 6 | 49 | 0.0 | 0.0 | 0.00 | 0.00 | 0.00 | 47 | 1020.8 |
| 20260507052005 | 6 | 49 | 0.0 | 0.0 | 0.00 | 0.00 | 0.00 | 47 | 1020.9 |
| 20260507051505 | 7 | 49 | 0.0 | 0.0 | 0.00 | 0.00 | 0.00 | 46 | 1021.0 |
| 20260507051004 | 7 | 49 | 0.0 | 0.0 | 0.00 | 0.00 | 0.00 | 46 | 1021.0 |
| 20260507050504 | 7 | 49 | 0.0 | 0.0 | 0.00 | 0.00 | 0.00 | 45 | 1021.0 |
| 20260507050005 | 7 | 49 | 0.0 | 0.0 | 0.00 | 0.00 | 0.00 | 44 | 1021.0 |
| 20260507045504 | 7 | 83 | 0.0 | 0.0 | 0.00 | 0.00 | 0.00 | 43 | 1020.9 |
| 20260507045004 | 7 | 68 | 0.0 | 0.0 | 0.00 | 0.00 | 0.00 | 45 | 1020.9 |
| 20260507044504 | 7 | 68 | 0.0 | 0.0 | 0.00 | 0.00 | 0.00 | 45 | 1020.9 |
| 20260507044004 | 7 | 68 | 0.0 | 0.0 | 0.00 | 0.00 | 0.00 | 43 | 1021.0 |
| 20260507043504 | 7 | 68 | 0.0 | 0.0 | 0.00 | 0.00 | 0.00 | 45 | 1021.1 |
| 20260507043004 | 7 | 68 | 0.0 | 0.0 | 0.00 | 0.00 | 0.00 | 43 | 1021.1 |
| 20260507042504 | 8 | 68 | 0.0 | 0.0 | 0.00 | 0.00 | 0.00 | 43 | 1021.0 |
| 20260507042004 | 8 | 68 | 0.0 | 0.0 | 0.00 | 0.00 | 0.00 | 41 | 1020.9 |
| 20260507041504 | 8 | 68 | 0.0 | 0.0 | 0.00 | 0.00 | 0.00 | 40 | 1020.8 |
| 20260507041004 | 8 | 68 | 0.0 | 0.0 | 0.00 | 0.00 | 0.00 | 40 | 1020.8 |
| 20260507040504 | 8 | 68 | 0.0 | 0.0 | 0.00 | 0.00 | 0.00 | 40 | 1020.7 |
| 20260507040005 | 9 | 68 | 0.0 | 0.0 | 0.00 | 0.00 | 0.00 | 39 | 1020.6 |
| 20260507035004 | 10 | 68 | 0.0 | 0.0 | 0.00 | 0.00 | 0.00 | 37 | 1020.7 |
| 20260507034504 | 10 | 47 | 0.0 | 0.0 | 0.00 | 0.00 | 0.00 | 37 | 1020.7 |
| 20260507033004 | 11 | 45 | 0.0 | 0.0 | 0.00 | 0.00 | 0.00 | 35 | 1020.5 |
| 20260507032504 | 11 | 45 | 0.0 | 0.0 | 0.00 | 0.00 | 0.00 | 34 | 1020.5 |
| 20260507032004 | 12 | 45 | 0.0 | 0.0 | 0.00 | 0.00 | 0.00 | 34 | 1020.4 |
| 20260507031504 | 12 | 45 | 0.0 | 0.0 | 0.00 | 0.00 | 0.00 | 34 | 1020.4 |
| 20260507031004 | 12 | 45 | 0.0 | 0.0 | 0.00 | 0.00 | 0.00 | 34 | 1020.3 |
| 20260507030504 | 12 | 45 | 0.0 | 0.0 | 0.00 | 0.00 | 0.00 | 33 | 1020.2 |
| 20260507030004 | 12 | 45 | 0.0 | 0.0 | 0.00 | 0.00 | 0.00 | 33 | 1020.2 |
| 20260507025504 | 13 | 45 | 0.0 | 0.0 | 0.00 | 0.00 | 0.00 | 33 | 1020.1 |
| 20260507025004 | 13 | 45 | 0.0 | 0.0 | 0.00 | 0.00 | 0.00 | 33 | 1020.0 |
| 20260507024004 | 13 | 45 | 0.0 | 0.0 | 0.00 | 0.00 | 0.00 | 32 | 1019.9 |
| 20260507023504 | 13 | 46 | 0.0 | 0.0 | 0.00 | 0.00 | 0.00 | 32 | 1019.9 |
| 20260507023004 | 13 | 325 | 0.0 | 0.0 | 0.00 | 0.00 | 0.00 | 32 | 1019.8 |
| 20260507022504 | 13 | 52 | 0.0 | 0.0 | 0.00 | 0.00 | 0.00 | 32 | 1019.9 |
| 20260507020504 | 15 | 112 | 0.0 | 0.0 | 0.00 | 0.00 | 0.00 | 30 | 1020.0 |
| 20260507020003 | 15 | 38 | 0.0 | 1.6 | 0.00 | 0.00 | 0.00 | 29 | 1020.0 |
| 20260507015507 | 15 | 3 | 0.0 | 3.2 | 0.00 | 0.00 | 0.00 | 28 | 1019.9 |
| 20260507015007 | 15 | 285 | 0.0 | 8.0 | 0.00 | 0.00 | 0.00 | 29 | 1020.0 |
| 20260507014507 | 15 | 29 | 0.0 | 8.0 | 0.00 | 0.00 | 0.00 | 28 | 1020.0 |
| 20260507014008 | 15 | 83 | 0.0 | 3.2 | 0.00 | 0.00 | 0.00 | 28 | 1020.0 |
| 20260507013007 | 16 | 118 | 0.0 | 0.0 | 0.00 | 0.00 | 0.00 | 27 | 1019.9 |
| 20260507012507 | 16 | 55 | 0.0 | 1.6 | 0.00 | 0.00 | 0.00 | 27 | 1019.9 |
| 20260507012007 | 16 | 68 | 0.0 | 1.6 | 0.00 | 0.00 | 0.00 | 26 | 1019.9 |
| 20260507011507 | 16 | 55 | 0.0 | 1.6 | 0.00 | 0.00 | 0.00 | 25 | 1020.0 |
| 20260507011007 | 16 | 18 | 0.0 | 1.6 | 0.00 | 0.00 | 0.00 | 23 | 1019.9 |
| 20260507010507 | 17 | 50 | 0.0 | 4.8 | 0.00 | 0.00 | 0.00 | 22 | 1019.9 |
| 20260507010007 | 17 | 331 | 0.0 | 4.8 | 0.00 | 0.00 | 0.00 | 22 | 1019.8 |
| 20260507005007 | 16 | 238 | 0.0 | 1.6 | 0.00 | 0.00 | 0.00 | 25 | 1019.8 |
| 20260507004507 | 17 | 52 | 0.0 | 1.6 | 0.00 | 0.00 | 0.00 | 25 | 1019.8 |
| 20260507002507 | 16 | 48 | 1.6 | 9.7 | 0.00 | 0.00 | 0.00 | 28 | 1019.8 |
| 20260507002007 | 16 | 32 | 0.0 | 4.8 | 0.00 | 0.00 | 0.00 | 26 | 1019.8 |
| 20260507001507 | 17 | 72 | 0.0 | 4.8 | 0.00 | 0.00 | 0.00 | 27 | 1019.8 |
| 20260507001006 | 17 | 349 | 1.6 | 4.8 | 0.00 | 0.00 | 0.00 | 27 | 1019.8 |
| 20260507000506 | 17 | 114 | 0.0 | 4.8 | 0.00 | 0.00 | 0.00 | 28 | 1019.8 |
| 20260507000006 | 17 | 291 | 0.0 | 4.8 | 0.00 | 0.00 | 0.00 | 28 | 1019.8 |
| 20260506235507 | 17 | 311 | 0.0 | 4.8 | 0.00 | 0.00 | 0.00 | 29 | 1019.8 |
| 20260506235007 | 16 | 343 | 0.0 | 4.8 | 0.00 | 0.00 | 0.00 | 30 | 1019.8 |
| 20260506234507 | 16 | 279 | 0.0 | 11.3 | 0.00 | 0.00 | 0.00 | 32 | 1019.7 |
| 20260506234007 | 16 | 55 | 1.6 | 11.3 | 0.00 | 0.00 | 0.00 | 31 | 1019.7 |
| 20260506232507 | 16 | 81 | 0.0 | 0.0 | 0.00 | 0.00 | 0.00 | 33 | 1019.6 |
| 20260506231507 | 16 | 358 | 0.0 | 16.1 | 0.00 | 0.00 | 0.00 | 34 | 1019.7 |
| 20260506231007 | 16 | 61 | 0.0 | 11.3 | 0.00 | 0.00 | 0.00 | 35 | 1019.7 |
| 20260506230506 | 16 | 77 | 1.6 | 14.5 | 0.00 | 0.00 | 0.00 | 35 | 1019.5 |
| 20260506230006 | 16 | 29 | 1.6 | 14.5 | 0.00 | 0.00 | 0.00 | 35 | 1019.6 |
| 20260506225506 | 16 | 44 | 1.6 | 14.5 | 0.00 | 0.00 | 0.00 | 35 | 1019.6 |
| 20260506225007 | 16 | 69 | 0.0 | 4.8 | 0.00 | 0.00 | 0.00 | 34 | 1019.6 |
| 20260506224507 | 16 | 247 | 0.0 | 16.1 | 0.00 | 0.00 | 0.00 | 34 | 1019.7 |
| 20260506224007 | 16 | 1 | 0.0 | 16.1 | 0.00 | 0.00 | 0.00 | 35 | 1019.7 |
| 20260506223507 | 16 | 62 | 0.0 | 24.1 | 0.00 | 0.00 | 0.00 | 34 | 1019.7 |
| 20260506223006 | 16 | 59 | 0.0 | 24.1 | 0.00 | 0.00 | 0.00 | 36 | 1019.9 |
| 20260506222007 | 16 | 11 | 1.6 | 16.1 | 0.00 | 0.00 | 0.00 | 36 | 1020.1 |
| 20260506221507 | 16 | 32 | 0.0 | 16.1 | 0.00 | 0.00 | 0.00 | 34 | 1020.2 |
| 20260506221006 | 16 | 64 | 0.0 | 16.1 | 0.00 | 0.00 | 0.00 | 35 | 1020.3 |
| 20260506220506 | 16 | 34 | 0.0 | 9.7 | 0.00 | 0.00 | 0.00 | 34 | 1020.5 |
| 20260506220006 | 16 | 319 | 0.0 | 4.8 | 0.00 | 0.00 | 0.00 | 35 | 1020.6 |
| 20260506215506 | 16 | 32 | 0.0 | 4.8 | 0.00 | 0.00 | 0.00 | 35 | 1020.7 |
| 20260506215006 | 16 | 92 | 0.0 | 4.8 | 0.00 | 0.00 | 0.00 | 35 | 1020.7 |
| 20260506214506 | 15 | 164 | 0.0 | 12.9 | 0.00 | 0.00 | 0.00 | 37 | 1020.7 |
| 20260506214006 | 15 | 71 | 0.0 | 12.9 | 0.00 | 0.00 | 0.00 | 37 | 1020.7 |
| 20260506213506 | 16 | 242 | 0.0 | 3.2 | 0.00 | 0.00 | 0.00 | 37 | 1020.9 |
| 20260506213007 | 16 | 277 | 0.0 | 3.2 | 0.00 | 0.00 | 0.00 | 36 | 1020.9 |
| 20260506212506 | 16 | 338 | 0.0 | 3.2 | 0.00 | 0.00 | 0.00 | 37 | 1021.1 |
| 20260506212007 | 15 | 8 | 0.0 | 3.2 | 0.00 | 0.00 | 0.00 | 38 | 1021.2 |
| 20260506211507 | 15 | 0 | 0.0 | 14.5 | 0.00 | 0.00 | 0.00 | 38 | 1021.1 |
| 20260506211007 | 15 | 52 | 0.0 | 14.5 | 0.00 | 0.00 | 0.00 | 36 | 1021.2 |
| 20260506210506 | 16 | 101 | 0.0 | 4.8 | 0.00 | 0.00 | 0.00 | 35 | 1021.3 |
| 20260506210007 | 16 | 53 | 0.0 | 19.3 | 0.00 | 0.00 | 0.00 | 37 | 1021.4 |
| 20260506205006 | 15 | 52 | 3.2 | 19.3 | 0.00 | 0.00 | 0.00 | 38 | 1021.3 |
| 20260506204507 | 15 | 79 | 0.0 | 11.3 | 0.00 | 0.00 | 0.00 | 38 | 1021.2 |
| 20260506204007 | 15 | 51 | 0.0 | 3.2 | 0.00 | 0.00 | 0.00 | 39 | 1021.3 |
| 20260506203006 | 15 | 65 | 0.0 | 12.9 | 0.00 | 0.00 | 0.00 | 36 | 1021.5 |
| 20260506202006 | 15 | 18 | 0.0 | 3.2 | 0.00 | 0.00 | 0.00 | 38 | 1021.4 |
| 20260506201506 | 15 | 72 | 0.0 | 3.2 | 0.00 | 0.00 | 0.00 | 36 | 1021.3 |
| 20260506201006 | 16 | 350 | 0.0 | 11.3 | 0.00 | 0.00 | 0.00 | 36 | 1021.4 |
| 20260506200506 | 15 | 237 | 1.6 | 11.3 | 0.00 | 0.00 | 0.00 | 37 | 1021.5 |
| 20260506200006 | 15 | 323 | 0.0 | 8.0 | 0.00 | 0.00 | 0.00 | 37 | 1021.4 |
| 20260506195006 | 15 | 315 | 0.0 | 11.3 | 0.00 | 0.00 | 0.00 | 39 | 1021.3 |
| 20260506194506 | 15 | 324 | 0.0 | 19.3 | 0.00 | 0.00 | 0.00 | 38 | 1021.3 |
| 20260506194006 | 15 | 69 | 1.6 | 19.3 | 0.00 | 0.00 | 0.00 | 37 | 1021.3 |
| 20260506193506 | 16 | 231 | 0.0 | 3.2 | 0.00 | 0.00 | 0.00 | 37 | 1021.4 |
| 20260506193006 | 15 | 235 | 0.0 | 3.2 | 0.00 | 0.00 | 0.00 | 37 | 1021.3 |
| 20260506192506 | 15 | 80 | 0.0 | 3.2 | 0.00 | 0.00 | 0.00 | 38 | 1021.4 |
| 20260506192006 | 15 | 344 | 0.0 | 4.8 | 0.00 | 0.00 | 0.00 | 38 | 1021.5 |
| 20260506191506 | 15 | 315 | 0.0 | 4.8 | 0.00 | 0.00 | 0.00 | 39 | 1021.5 |
| 20260506191006 | 15 | 318 | 0.0 | 3.2 | 0.00 | 0.00 | 0.00 | 38 | 1021.6 |
| 20260506190506 | 15 | 34 | 0.0 | 3.2 | 0.00 | 0.00 | 0.00 | 39 | 1021.7 |
| 20260506190006 | 14 | 283 | 0.0 | 4.8 | 0.00 | 0.00 | 0.00 | 40 | 1021.7 |
| 20260506185007 | 13 | 329 | 0.0 | 9.7 | 0.00 | 0.00 | 0.00 | 41 | 1021.8 |
| 20260506184506 | 13 | 326 | 0.0 | 20.9 | 0.00 | 0.00 | 0.00 | 41 | 1021.8 |
| 20260506184007 | 13 | 51 | 0.0 | 20.9 | 0.00 | 0.00 | 0.00 | 40 | 1021.8 |
| 20260506183506 | 13 | 81 | 1.6 | 16.1 | 0.00 | 0.00 | 0.00 | 40 | 1021.8 |
| 20260506183006 | 13 | 87 | 1.6 | 22.5 | 0.00 | 0.00 | 0.00 | 40 | 1021.8 |
| 20260506182506 | 13 | 100 | 0.0 | 22.5 | 0.00 | 0.00 | 0.00 | 40 | 1021.8 |
| 20260506182006 | 13 | 65 | 0.0 | 19.3 | 0.00 | 0.00 | 0.00 | 40 | 1021.8 |
| 20260506181506 | 13 | 84 | 1.6 | 19.3 | 0.00 | 0.00 | 0.00 | 40 | 1021.8 |
| 20260506181006 | 13 | 73 | 0.0 | 14.5 | 0.00 | 0.00 | 0.00 | 39 | 1021.9 |
| 20260506180506 | 13 | 14 | 0.0 | 14.5 | 0.00 | 0.00 | 0.00 | 40 | 1021.8 |
| 20260506175506 | 13 | 308 | 1.6 | 4.8 | 0.00 | 0.00 | 0.00 | 38 | 1021.8 |
| 20260506175006 | 13 | 62 | 0.0 | 16.1 | 0.00 | 0.00 | 0.00 | 39 | 1021.7 |
| 20260506174506 | 13 | 291 | 0.0 | 16.1 | 0.00 | 0.00 | 0.00 | 40 | 1021.7 |
| 20260506174006 | 12 | 68 | 3.2 | 16.1 | 0.00 | 0.00 | 0.00 | 40 | 1021.7 |
| 20260506173507 | 12 | 67 | 1.6 | 19.3 | 0.00 | 0.00 | 0.00 | 38 | 1021.4 |
| 20260506173006 | 12 | 63 | 0.0 | 19.3 | 0.00 | 0.00 | 0.00 | 40 | 1021.5 |
| 20260506172506 | 13 | 81 | 4.8 | 19.3 | 0.00 | 0.00 | 0.00 | 39 | 1021.4 |
| 20260506171506 | 13 | 52 | 1.6 | 16.1 | 0.00 | 0.00 | 0.00 | 39 | 1021.5 |
| 20260506171006 | 12 | 357 | 0.0 | 16.1 | 0.00 | 0.00 | 0.00 | 39 | 1021.5 |
| 20260506170505 | 12 | 354 | 0.0 | 8.0 | 0.00 | 0.00 | 0.00 | 38 | 1021.5 |
| 20260506170006 | 12 | 64 | 0.0 | 8.0 | 0.00 | 0.00 | 0.00 | 39 | 1021.5 |
| 20260506165505 | 13 | 66 | 1.6 | 8.0 | 0.00 | 0.00 | 0.00 | 38 | 1021.5 |
| 20260506165006 | 13 | 88 | 0.0 | 1.6 | 0.00 | 0.00 | 0.00 | 38 | 1021.4 |
| 20260506164506 | 12 | 47 | 0.0 | 1.6 | 0.00 | 0.00 | 0.00 | 39 | 1021.5 |
| 20260506164005 | 12 | 44 | 0.0 | 4.8 | 0.00 | 0.00 | 0.00 | 39 | 1021.5 |
| 20260506163506 | 12 | 75 | 0.0 | 8.0 | 0.00 | 0.00 | 0.00 | 39 | 1021.5 |
| 20260506163006 | 12 | 71 | 0.0 | 8.0 | 0.00 | 0.00 | 0.00 | 40 | 1021.4 |
| 20260506162506 | 12 | 82 | 0.0 | 4.8 | 0.00 | 0.00 | 0.00 | 39 | 1021.3 |
| 20260506161505 | 12 | 49 | 0.0 | 1.6 | 0.00 | 0.00 | 0.00 | 39 | 1021.3 |
| 20260506161006 | 12 | 84 | 0.0 | 1.6 | 0.00 | 0.00 | 0.00 | 39 | 1021.3 |
| 20260506160505 | 11 | 318 | 0.0 | 0.0 | 0.00 | 0.00 | 0.00 | 40 | 1021.3 |
| 20260506160006 | 11 | 332 | 0.0 | 0.0 | 0.00 | 0.00 | 0.00 | 41 | 1021.4 |
| 20260506155505 | 11 | 310 | 0.0 | 1.6 | 0.00 | 0.00 | 0.00 | 40 | 1021.3 |
| 20260506155006 | 11 | 343 | 0.0 | 1.6 | 0.00 | 0.00 | 0.00 | 40 | 1021.3 |
| 20260506154006 | 10 | 312 | 0.0 | 3.2 | 0.00 | 0.00 | 0.00 | 44 | 1021.2 |
| 20260506153506 | 8 | 277 | 0.0 | 3.2 | 0.00 | 0.00 | 0.00 | 48 | 1021.2 |
| 20260506153005 | 8 | 265 | 0.0 | 1.6 | 0.00 | 0.00 | 0.00 | 52 | 1021.1 |
| 20260506152506 | 7 | 262 | 0.0 | 0.0 | 0.00 | 0.00 | 0.00 | 57 | 1021.1 |
| 20260506152005 | 7 | 83 | 0.0 | 0.0 | 0.00 | 0.00 | 0.00 | 61 | 1021.2 |
| 20260506151506 | 6 | 83 | 0.0 | 0.0 | 0.00 | 0.00 | 0.00 | 66 | 1021.1 |
| 20260506151005 | 5 | 83 | 0.0 | 0.0 | 0.00 | 0.00 | 0.00 | 68 | 1021.1 |
| 20260506150505 | 4 | 83 | 0.0 | 0.0 | 0.00 | 0.00 | 0.00 | 74 | 1021.2 |
| 20260506145505 | 3 | 83 | 0.0 | 0.0 | 0.00 | 0.00 | 0.00 | 80 | 1021.0 |
| 20260506145006 | 2 | 83 | 0.0 | 0.0 | 0.00 | 0.00 | 0.00 | 83 | 1021.1 |
| 20260506144505 | 2 | 83 | 0.0 | 0.0 | 0.00 | 0.00 | 0.00 | 85 | 1021.1 |
| 20260506144005 | 2 | 83 | 0.0 | 0.0 | 0.00 | 0.00 | 0.00 | 86 | 1021.1 |
| 20260506143506 | 1 | 83 | 0.0 | 0.0 | 0.00 | 0.00 | 0.00 | 87 | 1021.0 |
| 20260506143006 | 1 | 83 | 0.0 | 0.0 | 0.00 | 0.00 | 0.00 | 88 | 1021.0 |
| 20260506142505 | 1 | 83 | 0.0 | 0.0 | 0.00 | 0.00 | 0.00 | 89 | 1021.1 |
| 20260506142006 | 0 | 83 | 0.0 | 0.0 | 0.00 | 0.00 | 0.00 | 90 | 1021.1 |
| 20260506141505 | 0 | 83 | 0.0 | 0.0 | 0.00 | 0.00 | 0.00 | 90 | 1021.0 |
| 20260506141005 | 0 | 83 | 0.0 | 0.0 | 0.00 | 0.00 | 0.00 | 90 | 1020.9 |
| 20260506140505 | 0 | 83 | 0.0 | 0.0 | 0.00 | 0.00 | 0.00 | 90 | 1020.8 |
| 20260506140005 | 0 | 83 | 0.0 | 0.0 | 0.00 | 0.00 | 0.00 | 90 | 1020.8 |
| 20260506135005 | 0 | 83 | 0.0 | 0.0 | 0.00 | 0.00 | 0.00 | 90 | 1020.6 |
| 20260506134505 | 0 | 83 | 0.0 | 0.0 | 0.00 | 0.00 | 0.00 | 90 | 1020.6 |
| 20260506134005 | -1 | 83 | 0.0 | 0.0 | 0.00 | 0.00 | 0.00 | 91 | 1020.5 |
| 20260506133505 | -1 | 83 | 0.0 | 0.0 | 0.00 | 0.00 | 0.00 | 92 | 1020.4 |
| 20260506132505 | -1 | 83 | 0.0 | 0.0 | 0.00 | 0.00 | 0.00 | 92 | 1020.4 |
| 20260506132006 | -1 | 83 | 0.0 | 0.0 | 0.00 | 0.00 | 0.00 | 92 | 1020.4 |
| 20260506131505 | -2 | 83 | 0.0 | 0.0 | 0.00 | 0.00 | 0.00 | 92 | 1020.3 |
| 20260506131005 | -2 | 83 | 0.0 | 0.0 | 0.00 | 0.00 | 0.00 | 91 | 1020.1 |
| 20260506130006 | -2 | 83 | 0.0 | 0.0 | 0.00 | 0.00 | 0.00 | 90 | 1019.9 |
| 20260506125506 | -2 | 83 | 0.0 | 0.0 | 0.00 | 0.00 | 0.00 | 90 | 1019.8 |
| 20260506125005 | -2 | 83 | 0.0 | 0.0 | 0.00 | 0.00 | 0.00 | 90 | 1019.8 |
| 20260506124006 | -1 | 83 | 0.0 | 0.0 | 0.00 | 0.00 | 0.00 | 90 | 1019.6 |
| 20260506123505 | -1 | 83 | 0.0 | 0.0 | 0.00 | 0.00 | 0.00 | 90 | 1019.6 |